Home   Weather   Cardiff   Past weeks

Flag for United Kingdom Past Weather in Cardiff, Wales, United Kingdom — Yesterday and Last 2 Weeks

Now
45 °F

Quite cool.


Feels Like: 39 °F
Forecast: 43 / 60 °F
Wind: 12 mph from Northwest

Location: Wales Airport

Current Time: Oct 1, 2016 at 11:22:16 PM

Latest Report: Oct 1, 2016 at 10:50 PM


Visibility: N/A

Pressure: 29.86 "Hg

Humidity: 93%

Dew Point: 43 °F

Location of CardiffLocation

Past Weather in Cardiff — Graph

°F

Cardiff Temperature Yesterday

Maximum temperature yesterday: 61 °F (at 12:20 PM)
Minimum temperature yesterday: 54 °F (at 4:50 AM)
Average temperature yesterday: 57 °F

High & Low Weather Summary for the Past Weeks

 TemperatureHumidityPressure
High68 °F (Sep 17, 2:20 PM)100% (Sep 17, 2:50 AM)30.30 "Hg (Sep 17, 2:50 AM)
Low46 °F (Oct 1, 10:20 PM)49% (Sep 17, 3:20 PM)29.62 "Hg (Oct 1, 6:20 AM)
Average59 °F83%30.06 "Hg
* Reported Sep 16 10:20 PM — Oct 1 10:20 PM, Cardiff, Weather by CustomWeather, © 2016

Note: Actual official high and low records may vary slightly from our data, if they occured in-between our weather recording intervals... More about our weather records

Advertising

Cardiff Weather History for the Previous 24 Hours

Scroll right to see more
 ConditionsComfort  
Time TempWeatherWind HumidityBarometerVisibility
10:20 PM
Sat, Oct 1
46 °FCool.8 mph93%29.83 "HgN/A
9:50 PM48 °FCool.5 mph87%29.83 "HgN/A
9:20 PM48 °FCool.9 mph87%29.80 "HgN/A
8:50 PM50 °FPassing clouds.10 mph88%29.80 "HgN/A
8:20 PM50 °FPassing clouds.12 mph94%29.77 "HgN/A
7:50 PM50 °FCool.12 mph100%29.74 "HgN/A
7:20 PM52 °FCool.9 mph94%29.74 "HgN/A
6:50 PM52 °FPassing clouds.10 mph94%29.71 "HgN/A
6:20 PM54 °FScattered showers. Scattered clouds.12 mph88%29.68 "HgN/A
5:50 PM54 °FCool.9 mph94%29.68 "HgN/A
5:20 PM54 °FLight rain. Cloudy.13 mph94%29.68 "HgN/A
4:50 PM55 °FScattered clouds.10 mph88%29.65 "HgN/A
4:20 PM55 °FScattered clouds.10 mph88%29.65 "HgN/A
3:50 PM55 °FScattered clouds.12 mph88%29.62 "HgN/A
3:20 PM59 °FSprinkles. Scattered clouds.9 mph82%29.62 "HgN/A
2:50 PM57 °FScattered clouds.8 mph82%29.62 "HgN/A
2:20 PM55 °FScattered clouds.7 mph88%29.62 "HgN/A
1:50 PM54 °FBroken clouds.10 mph82%29.62 "HgN/A
1:20 PM54 °FLight rain. Broken clouds.9 mph94%29.62 "HgN/A
12:50 PM54 °FLight rain. Partly sunny.9 mph88%29.62 "HgN/A
12:20 PM55 °FLight rain. Broken clouds.15 mph82%29.62 "HgN/A
11:50 AM55 °FLight rain. Broken clouds.15 mph77%29.62 "HgN/A
11:20 AM57 °FScattered clouds.14 mph77%29.62 "HgN/A
10:50 AM55 °FScattered showers. Scattered clouds.12 mph77%29.62 "HgN/A
10:20 AM54 °FScattered clouds.10 mph82%29.62 "HgN/A
9:50 AM54 °FPartly sunny.10 mph82%29.62 "HgN/A
9:20 AM54 °FPartly sunny.10 mph82%29.62 "HgN/A
8:50 AM54 °FMostly cloudy.9 mph82%29.62 "HgN/A
8:20 AM54 °FPartly sunny.9 mph82%29.62 "HgN/A
7:50 AM54 °FPartly sunny.9 mph82%29.62 "HgN/A
7:20 AM54 °FMostly cloudy.13 mph88%29.62 "HgN/A
6:50 AM54 °FLight rain. Partly cloudy.13 mph88%29.62 "HgN/A
6:20 AM54 °FLight rain. Overcast.10 mph82%29.62 "HgN/A
5:50 AM52 °FLight rain. Overcast.9 mph94%29.65 "HgN/A
5:20 AM54 °FLight rain. Passing clouds.9 mph82%29.65 "HgN/A
4:50 AM54 °FLight rain. Overcast.10 mph82%29.65 "HgN/A
4:20 AM54 °FLight rain. Partly cloudy.9 mph88%29.68 "HgN/A
3:50 AM55 °FPartly cloudy.8 mph77%29.68 "HgN/A
3:20 AM54 °FPassing clouds.8 mph82%29.71 "HgN/A
2:50 AM54 °FPassing clouds.8 mph82%29.71 "HgN/A
2:20 AM54 °FPassing clouds.6 mph82%29.74 "HgN/A
1:50 AM54 °FCool.6 mph82%29.74 "HgN/A
1:20 AM54 °FCool.5 mph82%29.74 "HgN/A
12:50 AM54 °FCool.6 mph82%29.77 "HgN/A
12:20 AM55 °FCool.8 mph77%29.77 "HgN/A
11:50 PM
Fri, Sep 30
55 °FCool.6 mph72%29.77 "HgN/A
11:20 PM55 °FCool.7 mph77%29.80 "HgN/A
Weather by CustomWeather, © 2016

See weather overviewHow to use our weather pages